Regional Weather Roundup
Issued by NWS

Home | Current Version | Previous Version | Text Only | Print | Product List | Glossary On
Versions: 1 2 3 4 5 6 7 8 9 10 11 12 13 14 15 16 17 18 19 20 21 22 23 24 25 26 27 28 29 30 31 32 33 34 35 36 37 38 39 40 41 42 43 44 45 46 47 48 49 50
000
ASUS44 KLIX 230011
RWRLA
LOUISIANA WEATHER ROUNDUP
NATIONAL WEATHER SERVICE NEW ORLEANS LA
700 PM CDT FRI MAY 22 2015

NOTE: "FAIR" INDICATES FEW OR NO CLOUDS BELOW 12,000 FEET WITH NO
      SIGNIFICANT WEATHER AND/OR OBSTRUCTIONS TO VISIBILITY.
      SKY/WX - SKY CONDITION AND SIGNIFICANT WEATHER.
      TMP - AIR TEMPERATURE.    DP   - DEWPOINT TEMPERATURE.
      RH  - RELATIVE HUMIDITY.  PRES - PRESSURE.
      HX  - HEAT INDEX.         WCI  - WIND CHILL INDEX.

*  THESE STATIONS ARE NOT NWS OR FAA STATIONS AND ARE NOT UNDER
   NWS QUALITY CONTROL.

LAZ040-048-061>063-065-066-069-230100-
SOUTHEAST LOUISIANA

CITY           SKY/WX    TMP DP  RH WIND       PRES   REMARKS
N.O. AUDUBON     N/A     82  69  66 MISG        N/A
6HR MIN TEMP:  79; 6HR MAX TEMP:  85;

N.O. INTL ARPT MOCLDY    81  65  58 E5        30.13S
6HR MIN TEMP:  77; 6HR MAX TEMP:  83;

N.O. LAKEFRONT PTCLDY    82  64  54 SE7       30.14S
6HR MIN TEMP:  77; 6HR MAX TEMP:  83;

SLIDELL        CLEAR     78  69  73 SW3       30.13S
6HR MIN TEMP:  78; 6HR MAX TEMP:  83;

BATON ROUGE    PTSUNNY   79  68  69 NE5       30.13S
6HR MIN TEMP:  78; 6HR MAX TEMP:  83;

BOOTHVILLE     CLOUDY    77  70  79 E7        30.15R
6HR MIN TEMP:  77; 6HR MAX TEMP:  79;

BELLE CHASSE   MOCLDY    78  67  68 SE7       30.13S
6HR MIN TEMP:  76; 6HR MAX TEMP:  81;

BOGALUSA*        N/A     81  65  58 CALM      30.16S
6HR MIN TEMP:  76; 6HR MAX TEMP:  83;

GALLIANO*      CLOUDY    79  70  73 CALM      30.14S
6HR MIN TEMP:  78; 6HR MAX TEMP:  82;

NEW ROADS*     MOCLDY    77  68  72 NW5       30.14S
6HR MIN TEMP:  74; 6HR MAX TEMP:  79;

GONZALES*      FAIR      81  69  65 CALM      30.12S
6HR MIN TEMP:  78; 6HR MAX TEMP:  83;

HAMMOND*       MOCLDY    79  68  69 CALM      30.15S
HOUMA*         PTCLDY    79  70  73 E8        30.13R
PORT FOURCHON* CLOUDY    79  72  78 E8        30.14R

$$

LAZ041-044-053-054-230100-
SOUTHWEST LOUISIANA

CITY           SKY/WX    TMP DP  RH WIND       PRES   REMARKS
LAKE CHARLES   CLOUDY    78  69  73 E7        30.12F
6HR MIN TEMP:  74; 6HR MAX TEMP:  81;

LAFAYETTE      SUNNY     80  69  69 N5        30.12F
6HR MIN TEMP:  74; 6HR MAX TEMP:  82;

PATTERSON      PTSUNNY   81  70  69 S8        30.14R
SALT POINT       N/A     81  72  74 SE6       30.11R
6HR MIN TEMP:  77; 6HR MAX TEMP:  82;

NEW IBERIA     MOSUNNY   82  69  64 NE7       30.13S
6HR MIN TEMP:  75; 6HR MAX TEMP:  83;

CHENAULT AIRPK NOT AVBL

$$

LAZ027-028-230100-
CENTRAL LOUISIANA

CITY           SKY/WX    TMP DP  RH WIND       PRES   REMARKS
FORT POLK      PTSUNNY   76  67  74 E7        30.13S
6HR MIN TEMP:  68; 6HR MAX TEMP:  78;

ALEXANDRIA INT PTSUNNY   75  65  70 SE9       30.13F
6HR MIN TEMP:  67; 6HR MAX TEMP:  77;

ALEXANDRIA     CLOUDY    76  65  68 E3        30.15F
6HR MIN TEMP:  72; 6HR MAX TEMP:  81;


$$

LAZ001-002-230100-
NORTHWEST LOUISIANA

CITY           SKY/WX    TMP DP  RH WIND       PRES   REMARKS
SHREVEPORT     PTSUNNY   76  62  62 SE6       30.12F
6HR MIN TEMP:  68; 6HR MAX TEMP:  78;

BARKSDALE AFB  MOSUNNY   76  62  61 SE6       30.13S
6HR MIN TEMP:  68; 6HR MAX TEMP:  78;

DTN SHREVEPORT MOSUNNY   75  60  59 E8        30.13S
6HR MIN TEMP:  67; 6HR MAX TEMP:  76;


$$

LAZ014-016-230100-
NORTHEAST LOUISIANA

CITY           SKY/WX    TMP DP  RH WIND       PRES   REMARKS
MONROE         SUNNY     74  57  55 E6        30.17F
6HR MIN TEMP:  69; 6HR MAX TEMP:  76;

TALLULAH       SUNNY     76  56  49 E7        30.17S
6HR MIN TEMP:  72; 6HR MAX TEMP:  79;


$$



USA.gov is the U.S. government's official web portal to all federal, state and local government web resources and services.